STARLINK-31683, 59573

Orbit data source: Space-Track

STARLINK-31683, 59573 is a payload satellite owned by SpaceX/Seattle (US) in LEO that was launched on Tue, 23 Apr 2024 UTC via an FALCON 9 launch vehicle from the Air Force Eastern Test Range (AFETR). Payload-class satellites include a variety of spacecraft equipped with specific instruments for various scientific and technological missions. These include communications satellites like Starlink; space stations such as the ISS; scientific satellites like the Hubble; Earth observation satellites from companies like Planet Labs, Umbra, and HawkEye 360; GPS; miniature CubeSats for education and research; and military/defense satellites.

Loading next visibility...
Identifier
59573, 2024-076K
Orbit
LEO
Country
Flag of USUS
Related business
Manufacturer
SpaceX/Seattle
Mission
Operational Commercial Communications
Bus & Motor
STARLINK V2M, Unknown motor
Mass
730 kg wet, ~700 kg dry
Launch date (UTC)
2024-04-23 (2 years ago)
Launch vehicle
FALCON 9
Launch site
Air Force Eastern Test Range (AFETR)
Object type
Payload
Rocket body
Debris
Shape & HBR
Box + 2 Pan, 17.7 m
Radar Cross Section
33.884 m², Large (>1 m²)

Expand to show TLE details & history
Last TLE update: 14 hours ago

TLE from 14 hours ago
0 STARLINK-31683
1 59573U 24076K   25351.69209462 -.00000983  00000-0 -26204-4 0  9992
2 59573  43.0008 111.9534 0001508 272.1904  87.8775 15.27571244 93966
Epoch: 2025-12-17T16:36Z
TLE epoch observation values (Epoch: 2025-12-17T16:36:36.975Z)
Latitude
-0°
Longitude
136.24103°
Altitude
482.813 km
Speed
7.626 km/s
True Right ascension
07h 27m 48s
True Declination
0° 00' 00"
Sunlit
Object was in full shadow at epoch
Visualization orbit readout
Latitude
Unknown
Longitude
Unknown
Altitude
Unknown
Speed
Unknown
Apparent Right ascension
Unknown
Apparent Declination
Unknown
Sunlit
N/A
Visualization observer readout
Local Sidereal Time
05:22:10
Azimuth
Unknown
Elevation
Unknown
Doppler factor
Unknown
Orbital elements
Apogee altitude
486.055 km
Perigee altitude
483.985 km
Semi-major axis
6,863.157 km
Eccentricity
0.00015
Inclination
43.0008°
RAAN
111.9534°
Arg. of periapsis
272.1904°
True anomaly
87.89477°
Mean anomaly
87.8775°
Eccentric anomaly
87.88613°
Mean motion
3.81731 °/min
Orbital period
94.31 mins
BSTAR
-0.000026204
Loading maneuver chart data...
Computing Atmospheric mass density...
Loading historical data...
Loading historical data...
Loading historical data...
Loading historical data...
Loading historical data...
Loading historical data...
Loading historical data...

Documentation

Showing up to 5 results
|